Location: Paris
(48.6709°N, 2.3750°E)
Time: 14:19:12
(UTC+02:00)

NOAA 18 - Pass Details

Date: 03 July 2022
Orbit: 839 x 860 km, 98.9° (Epoch: 11 August)

Event Time Altitude Azimuth Distance (km) Brightness Sun altitude
Exits shadow 00:26:29 10° 208° (SSW) 2,509 7.3 -15.7°
Reaches altitude 10° 00:26:35 10° 209° (SSW) 2,478 7.3 -15.7°
Maximum altitude 00:31:13 27° 267° (W) 1,577 6.8 -16.0°
Drops below altitude 10° 00:35:54 10° 324° (NW) 2,504 8.8 -16.2°
Sets 00:38:40 0° 337° (NNW) 3,447 10.2 -16.4°
